Weather History for 71244 - January, 2014

Change the Weather History Date:

Tuesday, January 28, 2014

  Actual Average Record
Temperature  
Mean Temperature 20 °F -  
Max Temperature 41 °F - - ()
Min Temperature 0 °F - - ()
Degree Days  
Heating Degree Days 44    
Moisture  
Dew Point 12 °F    
Average Humidity 66    
Maximum Humidity 84    
Minimum Humidity 38    
Precipitation  
Precipitation 0.64 in - - ()
Sea Level Pressure  
Sea Level Pressure 30.09 in    
Wind  
Wind Speed 8 mph ()    
Max Wind Speed 17 mph    
Max Gust Speed 22 mph    
T = Trace of Precipitation, MM = Missing Value Source: Averaged Metar Reports

Daily Weather History Graph

Daily Weather History Graph

Search for Another Location

Airport or City:

Trip Planner

Search our weather history database for the weather conditions in past years. The results will help you decide how hot, cold, wet, or windy it might be!

Date:

Astronomy

Jan. 28, 2014 Rise Set
Actual Time 8:04 AM MST 5:18 PM MST
Civil Twilight 7:29 AM MST 5:53 PM MST
Nautical Twilight 6:51 AM MST 6:31 PM MST
Astronomical Twilight 6:13 AM MST 7:09 PM MST
Moon 5:53 AM MST (1/28) 3:10 PM MST (1/28)
Length of Visible Light 10h 23m
Length of Day
9h 14m
Waning Crescent, 7% of the Moon is Illuminated
Jan 28
Waning Crescent
Jan 30
New
Feb 6
First Quarter
Feb 14
Full
Feb 22
Last Quarter

Hourly Weather History & Observations

Time (MST) Temp. Windchill Dew Point Humidity Pressure Visibility Wind Dir Wind Speed Gust Speed Precip Events Conditions
12:00 AM 0.3 °F -7.5 °F -3.6 °F 83% 30.45 in - West 3.5 mph - N/A   Unknown
1:00 AM -0.2 °F - -4.0 °F 84% 30.41 in - ESE 2.3 mph - N/A   Unknown
2:00 AM 6.4 °F -5.2 °F 1.9 °F 82% 30.36 in - SSW 6.9 mph - N/A   Unknown
3:00 AM 6.6 °F -3.7 °F 2.5 °F 83% 30.34 in - South 5.8 mph - N/A   Unknown
4:00 AM 7.3 °F -2.8 °F 3.0 °F 82% 30.29 in - South 5.8 mph - N/A   Unknown
5:00 AM 8 °F - 4 °F 77% 30.27 in - SSE 5.8 mph - -  
5:00 AM 8.4 °F -1.6 °F 4.1 °F 83% 30.27 in - SSE 5.8 mph - N/A   Unknown
6:00 AM 7.2 °F -6.4 °F 2.8 °F 82% 30.26 in - South 9.2 mph - N/A   Unknown
7:00 AM 7.3 °F -6.2 °F 2.5 °F 81% 30.22 in - South 9.2 mph - N/A   Unknown
8:00 AM 8.2 °F -6.8 °F 3.4 °F 81% 30.20 in - South 11.5 mph - N/A   Unknown
9:00 AM 11.5 °F 3.5 °F 5.4 °F 76% 30.17 in - SE 4.6 mph - N/A   Unknown
10:00 AM 20.3 °F 11.5 °F 11.3 °F 68% 30.12 in - SSW 6.9 mph - N/A   Unknown
11:00 AM 29 °F - 15 °F 41% 30.08 in - SSW 8.1 mph - -  
11:00 AM 28.6 °F 20.7 °F 14.5 °F 56% 30.08 in - SSW 8.1 mph - N/A   Unknown
12:00 PM 35.4 °F 29.7 °F 16.9 °F 47% 30.04 in - West 6.9 mph - N/A   Unknown
1:00 PM 39.9 °F 31.8 °F 16.9 °F 39% 30.00 in - WNW 15.0 mph - N/A   Unknown
2:00 PM 41.0 °F 32.8 °F 18.3 °F 40% 29.96 in - West 16.1 mph - N/A   Unknown
3:00 PM 41.4 °F 33.0 °F 17.4 °F 38% 29.94 in - West 17.3 mph - N/A   Unknown
4:00 PM 40.5 °F 33.6 °F 22.1 °F 48% 29.93 in - West 11.5 mph - N/A   Unknown
5:00 PM 36 °F - 21 °F 42% 29.94 in - West 13.8 mph - -  
5:00 PM 36.1 °F 27.3 °F 21.2 °F 55% 29.94 in - West 13.8 mph - N/A   Unknown
6:00 PM 31.3 °F 21.1 °F 19.8 °F 62% 29.93 in - WNW 13.8 mph - N/A   Unknown
7:00 PM 29.7 °F 19.1 °F 19.9 °F 67% 29.93 in - WNW 13.8 mph - N/A   Unknown
8:00 PM 29.1 °F 17.9 °F 20.1 °F 69% 29.92 in - WNW 15.0 mph - N/A   Unknown
9:00 PM 30.0 °F 18.7 °F 21.4 °F 70% 29.91 in - WNW 16.1 mph - N/A   Unknown
10:00 PM 28.8 °F 17.9 °F 21.6 °F 74% 29.87 in - WNW 13.8 mph - N/A   Unknown
11:00 PM 31 °F - 22 °F 60% 29.83 in - WNW 16.1 mph - -  
11:00 PM 31.3 °F 20.3 °F 22.5 °F 70% 29.83 in - WNW 16.1 mph 21.9 mph N/A   Unknown